Location: Sobotiste
(48.7170°N, 17.4000°E)
Time: 17:33:48
(UTC+01:00)

DX 1 - Visible Passes

Search period start: 14 March 2026 00:00
Search period end: 24 March 2026 00:00
Orbit: 595 x 603 km, 98.4° (Epoch: 14 March)

Date Brightness Start Highest point End Pass type
(mag) Time Alt. Az. Time Alt. Az. Time Alt. Az.
14 Mar ? 02:53:59 10° NNE 02:55:58 27° NNE 02:55:58 27° NNE visible
14 Mar ? 04:31:26 10° NNW 04:32:42 12° NW 04:32:42 12° NW visible
15 Mar ? 03:04:46 10° N 03:07:00 30° N 03:07:00 30° N visible
15 Mar ? 04:43:34 10° NW 04:43:44 10° NW 04:43:44 10° NW visible
16 Mar ? 01:41:01 10° NE 01:41:18 11° NE 01:41:18 11° NE visible
16 Mar ? 03:15:35 10° N 03:18:01 32° N 03:18:01 32° N visible
17 Mar ? 01:51:24 10° NE 01:52:19 14° NE 01:52:19 14° NE visible
17 Mar ? 03:26:25 10° N 03:29:03 32° NNW 03:29:03 32° NNW visible
18 Mar ? 02:01:54 10° NE 02:03:21 18° NE 02:03:21 18° NE visible
18 Mar ? 03:37:18 10° N 03:40:05 30° NW 03:40:05 30° NW visible
19 Mar ? 02:12:27 10° NNE 02:14:22 22° NE 02:14:22 22° NE visible
19 Mar ? 03:48:13 10° N 03:51:06 27° NW 03:51:06 27° NW visible
20 Mar ? 02:23:05 10° NNE 02:25:23 28° NE 02:25:23 28° NE visible
20 Mar ? 03:59:10 10° N 04:02:07 23° NW 04:02:07 23° NW visible
21 Mar ? 02:33:44 10° NNE 02:36:24 34° NE 02:36:24 34° NE visible
21 Mar ? 04:10:11 10° NNW 04:13:08 19° WNW 04:13:08 19° WNW visible
22 Mar ? 02:44:27 10° NNE 02:47:25 43° NE 02:47:25 43° NE visible
22 Mar ? 04:21:18 10° NNW 04:23:48 16° WNW 04:24:09 15° WNW visible
23 Mar ? 02:55:10 10° NNE 02:58:25 52° NNE 02:58:25 52° NNE visible
23 Mar ? 04:32:32 10° NNW 04:34:24 13° WNW 04:35:09 12° WNW visible
